QPF
0.00 0.00 0.00 0.00 0.00 0.00 0.00 0.00 0.00 0.00 0.00 0.00 0.00 0.00 0.00 0.00 0.00 0.00 0.00 0.00 0.00 0.00 0.00 0.00 0.00 0.00 0.00 0.00 0.00 0.00 0.00 0.00 0.00 0.00 0.00 0.00 0.00 0.00 0.00 0.00 0.00 0.00 0.00
0.00 0.00 0.00 0.00 0.00 0.00 0.00 0.00 0.00 0.00 0.00 0.00 0.00 0.00 0.00 0.00 0.00 0.00 0.00 0.00 0.00 0.00 0.00 0.00 0.00 0.00 0.00 0.00 0.00 0.00 0.00 0.00 0.00 0.00 0.00 0.00 0.00 0.00 0.00 0.00 0.00 0.00 0.00
0.00 0.00 0.00 0.00 0.00 0.00 0.00 0.00 0.00 0.00 0.00 0.00 0.00 0.00 0.00 0.00 0.00 0.00 0.00 0.00 0.00 0.00 0.00 0.00 0.00 0.00 0.00 0.00 0.00 0.00 0.00 0.00 0.00 0.00 0.00 0.00 0.00 0.00 0.00 0.00 0.00 0.00 0.00
0.00 0.00 0.00 0.00 0.00 0.00 0.00 0.00 0.00 0.00 0.00 0.00 0.00 0.00 0.00 0.00 0.00 0.00 0.00 0.00 0.00 0.00 0.00 0.00 0.00 0.00 0.00 0.00 0.00 0.00 0.00 0.00 0.00 0.00 0.00 0.00 0.00 0.00 0.00 0.00 0.01 0.01 0.00
0.00 0.00 0.00 0.00 0.00 0.00 0.00 0.00 0.00 0.00 0.00 0.00 0.00 0.00 0.00 0.00 0.00 0.00 0.00 0.00 0.00 0.00 0.00 0.00 0.00 0.00 0.00 0.00 0.00 0.00 0.00 0.00 0.00 0.00 0.00 0.00 0.01 0.00 0.00 0.02 0.01 0.01 0.01
0.00 0.00 0.00 0.00 0.00 0.00 0.00 0.00 0.00 0.00 0.00 0.00 0.00 0.00 0.00 0.00 0.00 0.00 0.00 0.00 0.00 0.00 0.00 0.00 0.00 0.00 0.00 0.00 0.00 0.00 0.00 0.00 0.00 0.00 0.00 0.00 0.00 0.00 0.01 0.00 0.02 0.04 0.03
0.00 0.00 0.00 0.00 0.00 0.00 0.00 0.00 0.00 0.00 0.00 0.00 0.00 0.00 0.00 0.00 0.00 0.00 0.00 0.00 0.00 0.00 0.00 0.00 0.00 0.00 0.00 0.00 0.00 0.00 0.00 0.00 0.00 0.00 0.00 0.00 0.00 0.00 0.02 0.02 0.03 0.03 0.03
0.00 0.00 0.00 0.00 0.00 0.00 0.00 0.00 0.00 0.00 0.00 0.00 0.00 0.00 0.00 0.00 0.00 0.00 0.00 0.00 0.00 0.00 0.00 0.00 0.00 0.00 0.00 0.00 0.00 0.00 0.00 0.00 0.00 0.00 0.00 0.00 0.00 0.00 0.00 0.00 0.01 0.03 0.03
0.00 0.00 0.00 0.00 0.00 0.00 0.00 0.00 0.00 0.00 0.00 0.00 0.00 0.00 0.00 0.00 0.00 0.00 0.00 0.00 0.00 0.00 0.00 0.00 0.00 0.00 0.01 0.00 0.00 0.00 0.00 0.00 0.00 0.01 0.01 0.00 0.00 0.00 0.00 0.00 0.00 0.02 0.02
0.00 0.00 0.00 0.00 0.00 0.00 0.00 0.00 0.00 0.00 0.00 0.00 0.00 0.00 0.00 0.00 0.00 0.00 0.00 0.00 0.00 0.00 0.00 0.00 0.00 0.00 0.00 0.00 0.00 0.00 0.00 0.00 0.00 0.00 0.00 0.00 0.00 0.00 0.00 0.00 0.00 0.00 0.01
0.00 0.00 0.00 0.00 0.00 0.00 0.00 0.00 0.00 0.00 0.00 0.00 0.00 0.00 0.00 0.00 0.00 0.00 0.00 0.00 0.00 0.00 0.00 0.00 0.00 0.00 0.00 0.00 0.00 0.00 0.01 0.01 0.00 0.00 0.00 0.00 0.00 0.00 0.00 0.00 0.01 0.02 0.02
0.00 0.00 0.00 0.00 0.00 0.00 0.00 0.00 0.00 0.00 0.00 0.00 0.00 0.00 0.00 0.00 0.00 0.00 0.01 0.01 0.00 0.00 0.00 0.00 0.00 0.00 0.00 0.00 0.00 0.00 0.00 0.00 0.00 0.00 0.00 0.00 0.00 0.00 0.00 0.01 0.02 0.02 0.01
0.00 0.00 0.00 0.00 0.00 0.00 0.00 0.00 0.00 0.00 0.00 0.00 0.00 0.00 0.00 0.00 0.00 0.00 0.00 0.01 0.01 0.00 0.01 0.01 0.01 0.00 0.00 0.00 0.00 0.00 0.00 0.00 0.00 0.00 0.00 0.00 0.00 0.01 0.01 0.01 0.01 0.01 0.01
0.00 0.00 0.00 0.00 0.00 0.00 0.00 0.00 0.00 0.00 0.00 0.00 0.00 0.00 0.00 0.00 0.00 0.00 0.00 0.00 0.00 0.00 0.01 0.00 0.00 0.01 0.01 0.01 0.01 0.00 0.00 0.00 0.00 0.00 0.00 0.00 0.00 0.00 0.00 0.01 0.01 0.02 0.01
0.00 0.00 0.00 0.00 0.00 0.00 0.00 0.00 0.00 0.00 0.00 0.00 0.00 0.00 0.00 0.00 0.00 0.00 0.00 0.00 0.00 0.00 0.00 0.00 0.00 0.00 0.00 0.00 0.00 0.01 0.01 0.01 0.00 0.00 0.00 0.00 0.01 0.02 0.02 0.02 0.01 0.02 0.01
0.00 0.00 0.00 0.00 0.00 0.00 0.00 0.00 0.00 0.00 0.00 0.00 0.00 0.00 0.00 0.00 0.00 0.00 0.00 0.00 0.00 0.00 0.00 0.00 0.00 0.00 0.00 0.00 0.00 0.00 0.00 0.01 0.00 0.00 0.01 0.01 0.01 0.02 0.03 0.03 0.01 0.00 0.00
0.00 0.00 0.00 0.00 0.00 0.00 0.00 0.00 0.00 0.00 0.00 0.00 0.00 0.00 0.00 0.00 0.00 0.00 0.00 0.00 0.00 0.00 0.00 0.00 0.00 0.00 0.00 0.00 0.00 0.00 0.00 0.00 0.00 0.00 0.01 0.01 0.01 0.02 0.05 0.03 0.02 0.01 0.00
0.00 0.00 0.00 0.00 0.00 0.00 0.00 0.00 0.00 0.00 0.00 0.00 0.00 0.00 0.00 0.00 0.00 0.00 0.00 0.00 0.00 0.00 0.00 0.00 0.00 0.00 0.00 0.00 0.00 0.00 0.00 0.00 0.00 0.00 0.00 0.00 0.00 0.03 0.04 0.03 0.02 0.01 0.00
0.00 0.00 0.00 0.00 0.00 0.00 0.00 0.00 0.00 0.00 0.00 0.00 0.00 0.00 0.00 0.00 0.00 0.00 0.00 0.00 0.00 0.00 0.00 0.00 0.00 0.00 0.00 0.00 0.00 0.00 0.00 0.00 0.00 0.00 0.00 0.00 0.00 0.00 0.00 0.00 0.00 0.00 0.00
0.00 0.00 0.00 0.00 0.00 0.00 0.00 0.00 0.00 0.00 0.00 0.00 0.00 0.00 0.00 0.00 0.00 0.00 0.00 0.00 0.00 0.00 0.00 0.00 0.00 0.00 0.00 0.00 0.00 0.00 0.00 0.00 0.00 0.00 0.00 0.00 0.00 0.00 0.00 0.00 0.00 0.00 0.00
0.00 0.00 0.00 0.00 0.00 0.00 0.00 0.00 0.00 0.00 0.00 0.00 0.00 0.00 0.00 0.00 0.00 0.00 0.00 0.00 0.00 0.00 0.00 0.00 0.00 0.00 0.00 0.00 0.00 0.00 0.00 0.00 0.00 0.00 0.00 0.00 0.00 0.00 0.00 0.00 0.00 0.00 0.00
0.00 0.00 0.00 0.00 0.00 0.00 0.00 0.00 0.00 0.00 0.00 0.00 0.00 0.00 0.01 0.00 0.00 0.00 0.00 0.00 0.00 0.00 0.00 0.00 0.00 0.00 0.00 0.00 0.00 0.00 0.00 0.00 0.00 0.00 0.00 0.00 0.00 0.00 0.00 0.00 0.00 0.00 0.00
0.00 0.00 0.00 0.00 0.00 0.00 0.00 0.00 0.00 0.00 0.00 0.00 0.00 0.00 0.00 0.00 0.00 0.00 0.00 0.00 0.00 0.00 0.00 0.00 0.00 0.00 0.00 0.00 0.00 0.00 0.00 0.00 0.00 0.00 0.00 0.00 0.00 0.00 0.00 0.00 0.00 0.00 0.00
0.00 0.00 0.00 0.00 0.00 0.00 0.00 0.00 0.00 0.00 0.00 0.00 0.00 0.00 0.00 0.00 0.00 0.00 0.00 0.00 0.00 0.00 0.00 0.00 0.00 0.00 0.00 0.00 0.00 0.00 0.00 0.00 0.00 0.00 0.00 0.00 0.00 0.00 0.00 0.00 0.00 0.00 0.00
0.00 0.00 0.00 0.00 0.01 0.00 0.01 0.00 0.00 0.00 0.00 0.00 0.00 0.00 0.00 0.00 0.00 0.00 0.00 0.00 0.00 0.00 0.00 0.00 0.00 0.00 0.00 0.00 0.00 0.00 0.00 0.00 0.00 0.00 0.00 0.00 0.00 0.00 0.00 0.00 0.00 0.00 0.00
0.00 0.00 0.00 0.00 0.00 0.00 0.00 0.00 0.00 0.00 0.00 0.00 0.00 0.00 0.00 0.00 0.00 0.00 0.00 0.00 0.00 0.00 0.00 0.00 0.00 0.00 0.00 0.00 0.00 0.00 0.00 0.00 0.00 0.00 0.00 0.00 0.00 0.00 0.00 0.00 0.00 0.00 0.00
MSLP
1011.30 1012.25 1013.19 1014.09 1014.87 1015.61 1016.41 1017.16 1017.78 1018.49 1019.06 1019.70 1020.22 1020.50 1020.84 1021.09 1021.22 1021.47 1021.75 1021.99 1022.08 1022.56 1022.87 1023.05 1023.38 1023.54 1023.95 1024.28 1024.39 1024.62 1025.14 1025.70 1027.23 1029.53 1030.06 1030.27 1030.22 1030.01 1030.08 1030.08 1030.11 1030.03 1030.03
1010.85 1011.89 1012.93 1013.89 1014.72 1015.46 1016.14 1016.86 1017.53 1018.29 1018.87 1019.31 1019.96 1020.43 1020.80 1021.10 1021.40 1021.54 1021.81 1022.11 1022.31 1022.70 1023.10 1023.44 1023.88 1024.08 1024.43 1024.55 1024.84 1025.37 1025.85 1026.38 1026.94 1028.60 1029.92 1030.46 1030.72 1030.91 1030.78 1030.74 1031.13 1031.07 1030.84
1010.99 1011.86 1012.86 1013.76 1014.49 1015.27 1016.01 1016.76 1017.42 1018.03 1018.73 1019.28 1019.85 1020.35 1020.73 1021.07 1021.36 1021.63 1021.82 1022.21 1022.49 1022.87 1023.23 1023.44 1023.96 1024.24 1024.74 1025.16 1025.47 1025.84 1026.41 1027.02 1027.67 1028.38 1029.72 1030.52 1031.14 1031.34 1031.34 1031.57 1031.74 1031.59 1031.50
1011.10 1011.83 1012.57 1013.32 1014.13 1014.97 1015.79 1016.58 1017.18 1017.81 1018.49 1019.14 1019.68 1020.19 1020.64 1021.07 1021.33 1021.59 1021.78 1022.18 1022.54 1023.00 1023.36 1023.65 1024.05 1024.44 1024.85 1025.24 1025.76 1026.31 1026.71 1027.33 1028.01 1028.75 1029.67 1030.55 1031.04 1031.58 1031.53 1031.86 1032.26 1032.36 1032.26
1011.00 1011.73 1012.39 1013.13 1013.95 1014.81 1015.67 1016.47 1017.09 1017.65 1018.22 1018.80 1019.46 1020.11 1020.53 1020.87 1021.21 1021.50 1021.74 1022.07 1022.59 1023.11 1023.55 1023.85 1024.01 1024.45 1025.02 1025.16 1025.51 1026.27 1026.83 1027.45 1028.14 1028.85 1029.60 1030.33 1030.93 1031.45 1031.54 1031.88 1032.31 1032.69 1032.52
1011.01 1011.58 1012.24 1013.04 1013.85 1014.68 1015.55 1016.34 1016.98 1017.55 1018.10 1018.74 1019.35 1019.85 1020.41 1020.78 1021.12 1021.47 1021.77 1022.15 1022.61 1023.02 1023.58 1024.03 1024.33 1025.26 1025.32 1025.58 1025.88 1026.13 1026.24 1026.93 1027.71 1028.31 1029.02 1029.53 1030.06 1030.61 1031.19 1031.68 1032.17 1032.55 1032.68
1011.01 1011.53 1012.20 1012.94 1013.63 1014.29 1015.03 1015.88 1016.69 1017.30 1017.92 1018.61 1019.20 1019.68 1020.33 1020.71 1021.06 1021.46 1021.65 1022.27 1022.69 1023.03 1023.40 1023.84 1024.39 1024.77 1025.35 1025.59 1026.27 1026.63 1026.84 1026.93 1026.94 1027.29 1028.01 1028.56 1029.11 1029.65 1030.47 1031.23 1031.56 1031.91 1032.08
1011.03 1011.60 1012.17 1012.81 1013.48 1014.19 1014.84 1015.54 1016.29 1016.94 1017.57 1018.25 1018.89 1019.50 1020.14 1020.61 1020.93 1021.41 1021.75 1022.24 1022.60 1022.93 1023.29 1023.64 1024.17 1024.74 1025.04 1025.49 1025.93 1026.42 1026.78 1026.97 1027.22 1027.40 1027.50 1027.94 1028.32 1028.89 1029.27 1029.75 1030.61 1031.52 1032.06
1010.90 1011.38 1011.95 1012.50 1013.16 1013.99 1014.80 1015.27 1015.87 1016.58 1017.48 1018.02 1018.54 1019.28 1019.82 1020.41 1020.70 1021.26 1021.72 1022.15 1022.56 1022.90 1023.27 1023.54 1024.09 1024.71 1025.16 1025.61 1025.99 1026.53 1026.95 1027.20 1027.35 1027.54 1027.66 1027.88 1028.28 1028.63 1029.00 1030.00 1030.85 1031.52 1031.79
1010.52 1011.01 1011.60 1012.23 1012.89 1013.57 1014.28 1015.01 1015.69 1016.27 1017.04 1017.81 1018.50 1018.87 1019.36 1020.12 1020.68 1021.16 1021.56 1021.95 1022.48 1022.95 1023.37 1023.74 1024.31 1024.30 1025.11 1025.46 1025.72 1026.32 1026.81 1027.12 1027.57 1027.73 1027.97 1028.12 1028.34 1028.68 1029.01 1029.03 1029.90 1030.69 1031.19
1010.41 1010.86 1011.38 1011.95 1012.53 1013.17 1014.04 1014.75 1015.35 1016.20 1017.02 1017.78 1018.43 1018.77 1019.27 1019.86 1020.60 1021.11 1021.51 1021.78 1022.19 1022.93 1023.40 1023.88 1024.06 1024.29 1024.77 1025.09 1025.21 1025.83 1026.23 1026.69 1027.20 1027.65 1028.02 1028.48 1028.83 1029.07 1029.35 1029.39 1029.59 1029.80 1030.30
1010.21 1010.82 1011.37 1011.95 1012.40 1013.03 1013.67 1014.61 1015.21 1015.97 1016.85 1017.60 1018.31 1018.99 1019.38 1019.79 1020.31 1020.96 1021.37 1021.68 1022.06 1022.72 1023.32 1023.71 1024.21 1024.39 1024.73 1025.04 1025.36 1025.49 1026.08 1026.67 1027.18 1027.71 1028.15 1028.51 1028.79 1028.97 1029.16 1029.33 1029.39 1029.57 1029.77
1010.09 1010.63 1011.11 1011.71 1012.21 1012.75 1013.46 1014.20 1015.11 1015.59 1016.32 1017.17 1017.96 1018.60 1019.29 1019.73 1020.08 1020.61 1021.15 1021.46 1021.69 1022.46 1023.00 1023.29 1023.68 1024.08 1024.48 1024.95 1025.24 1025.59 1026.22 1026.58 1027.13 1027.70 1027.93 1028.12 1028.28 1028.48 1028.89 1029.29 1029.49 1029.61 1029.74
1010.00 1010.52 1011.02 1011.52 1012.04 1012.59 1013.14 1013.67 1014.26 1014.88 1015.48 1016.29 1017.16 1017.90 1018.69 1019.40 1019.74 1020.13 1020.66 1021.17 1021.55 1022.18 1022.81 1023.34 1023.62 1024.05 1024.41 1024.77 1025.40 1025.58 1025.93 1026.32 1026.62 1026.97 1027.43 1027.74 1028.09 1028.40 1028.66 1028.91 1029.21 1029.51 1029.73
1009.73 1010.28 1010.87 1011.17 1011.51 1012.03 1012.46 1012.82 1013.31 1013.65 1013.96 1014.94 1015.87 1016.69 1017.55 1018.32 1018.48 1019.04 1019.79 1020.46 1021.03 1021.62 1022.46 1023.14 1023.69 1024.18 1024.45 1024.77 1025.18 1025.39 1025.81 1026.18 1026.43 1026.58 1026.95 1027.50 1027.89 1028.14 1028.50 1028.69 1028.96 1029.30 1029.43
1009.49 1009.94 1010.31 1010.86 1011.15 1011.53 1012.09 1012.72 1012.98 1013.26 1013.71 1014.17 1014.59 1015.05 1016.32 1016.98 1017.78 1018.62 1019.21 1019.76 1020.37 1021.10 1022.02 1022.69 1023.03 1023.32 1023.73 1024.02 1024.51 1025.00 1025.29 1025.61 1025.78 1026.03 1026.30 1026.84 1027.37 1027.75 1028.08 1028.39 1028.63 1029.01 1029.14
1008.77 1009.39 1010.00 1010.31 1010.58 1011.00 1011.64 1012.08 1012.81 1013.42 1013.57 1014.03 1014.48 1015.05 1015.67 1016.22 1017.25 1018.02 1018.67 1019.31 1019.98 1020.69 1021.29 1022.04 1022.44 1022.72 1022.94 1023.27 1023.61 1023.96 1024.39 1024.64 1024.96 1025.52 1025.87 1026.23 1026.65 1027.28 1027.82 1028.10 1028.25 1028.54 1028.69
1008.08 1008.58 1009.12 1009.50 1009.93 1010.47 1010.94 1011.51 1011.90 1012.53 1013.18 1013.87 1014.45 1014.82 1015.40 1015.89 1016.65 1017.50 1018.18 1019.10 1020.18 1020.40 1020.87 1021.16 1021.78 1022.13 1022.55 1023.00 1023.43 1023.76 1024.24 1024.58 1024.98 1025.12 1025.28 1025.73 1026.32 1026.73 1027.19 1027.58 1027.98 1028.14 1028.28
1007.59 1007.65 1008.08 1008.77 1009.45 1009.93 1010.45 1011.08 1011.69 1012.12 1012.68 1013.42 1014.24 1014.88 1015.37 1015.87 1016.62 1017.31 1017.66 1018.37 1019.22 1019.85 1020.37 1020.68 1021.11 1021.66 1021.97 1022.47 1023.02 1023.51 1023.88 1024.34 1024.63 1025.12 1025.48 1025.69 1025.91 1026.52 1026.93 1027.23 1027.79 1028.02 1028.28
1006.97 1007.33 1007.28 1007.98 1008.78 1009.41 1009.87 1010.44 1011.06 1011.63 1012.18 1012.76 1013.43 1014.09 1014.93 1015.90 1016.40 1016.87 1017.26 1017.88 1018.66 1019.25 1019.76 1020.31 1020.89 1021.25 1021.69 1022.17 1022.78 1023.30 1023.83 1024.26 1024.56 1025.00 1025.46 1025.83 1026.16 1026.45 1026.83 1027.15 1027.42 1027.78 1028.09
1006.07 1006.73 1007.34 1007.23 1007.93 1008.50 1009.04 1009.48 1010.15 1010.76 1011.48 1012.07 1012.56 1013.29 1013.83 1014.46 1015.31 1016.07 1016.88 1017.47 1017.93 1018.62 1019.33 1019.93 1020.64 1021.10 1021.50 1022.11 1022.70 1023.29 1023.81 1024.24 1024.56 1025.05 1025.46 1026.05 1026.37 1026.54 1026.74 1026.83 1027.03 1027.37 1027.62
1005.72 1005.76 1006.49 1006.95 1006.95 1007.79 1008.31 1008.95 1009.55 1010.04 1010.62 1011.50 1012.23 1012.91 1013.65 1014.24 1014.97 1015.62 1016.53 1017.23 1017.72 1018.27 1018.94 1019.55 1020.41 1021.00 1021.42 1021.95 1022.70 1023.37 1023.93 1024.31 1024.64 1024.93 1025.39 1025.83 1026.38 1026.59 1026.89 1027.00 1026.99 1027.39 1027.54
1005.57 1005.47 1005.73 1006.36 1006.55 1007.07 1007.73 1008.14 1008.84 1009.56 1010.01 1010.79 1011.72 1012.36 1013.10 1013.80 1014.70 1015.43 1016.22 1017.08 1017.77 1018.39 1018.87 1019.59 1020.46 1021.33 1021.94 1022.33 1022.86 1023.39 1024.03 1024.49 1024.78 1025.06 1025.46 1026.05 1026.57 1026.87 1027.12 1027.16 1027.44 1027.73 1027.92
1005.26 1005.03 1005.20 1005.48 1006.11 1006.26 1006.98 1007.54 1008.13 1008.96 1009.68 1009.96 1010.88 1012.02 1012.65 1013.28 1014.34 1015.34 1016.22 1017.19 1018.04 1018.66 1019.16 1019.98 1020.89 1021.61 1022.49 1022.97 1023.51 1024.12 1024.64 1025.11 1025.30 1025.76 1025.95 1026.26 1027.05 1027.48 1027.47 1027.71 1027.93 1028.12 1028.25
1004.75 1004.68 1004.75 1004.93 1005.37 1005.74 1006.23 1006.84 1007.42 1008.09 1008.97 1009.80 1010.29 1011.31 1012.63 1013.43 1014.62 1015.50 1016.42 1017.38 1018.23 1018.98 1019.79 1020.55 1021.44 1022.07 1022.93 1023.50 1023.85 1024.77 1025.40 1025.79 1026.00 1026.46 1026.91 1027.03 1027.49 1027.88 1028.32 1028.42 1028.54 1028.61 1028.59
1004.13 1004.12 1004.26 1004.48 1004.72 1005.25 1005.67 1006.11 1006.68 1007.43 1008.19 1009.40 1010.38 1011.01 1012.32 1013.60 1014.85 1015.59 1016.40 1017.32 1018.36 1019.53 1020.51 1021.26 1022.15 1022.78 1023.57 1024.21 1024.41 1025.26 1026.11 1026.30 1026.54 1026.84 1027.35 1027.78 1028.28 1028.93 1029.22 1029.33 1029.62 1029.79 1029.87
Thickness
5646 5641 5637 5635 5632 5630 5625 5620 5617 5612 5609 5604 5601 5600 5597 5595 5594 5591 5589 5586 5585 5580 5575 5572 5569 5567 5564 5562 5561 5560 5556 5550 5537 5518 5515 5512 5512 5512 5510 5510 5509 5509 5507
5640 5636 5632 5628 5626 5623 5620 5616 5612 5608 5604 5602 5598 5596 5593 5591 5589 5587 5585 5582 5579 5576 5570 5566 5561 5558 5555 5555 5554 5549 5545 5541 5537 5524 5512 5507 5505 5502 5501 5500 5498 5498 5498
5630 5628 5624 5621 5619 5616 5613 5609 5606 5604 5600 5597 5593 5591 5589 5587 5585 5582 5581 5578 5575 5570 5566 5563 5557 5554 5550 5546 5543 5541 5537 5531 5527 5522 5509 5502 5496 5494 5493 5491 5489 5490 5489
5620 5620 5618 5616 5613 5609 5605 5602 5601 5599 5596 5592 5590 5587 5585 5583 5581 5579 5578 5575 5571 5566 5561 5557 5552 5548 5544 5542 5537 5533 5530 5526 5521 5514 5506 5498 5494 5488 5487 5485 5480 5479 5479
5612 5611 5611 5608 5605 5602 5600 5596 5595 5594 5592 5590 5587 5583 5580 5579 5578 5577 5574 5571 5567 5561 5556 5552 5548 5545 5540 5538 5536 5529 5524 5519 5513 5509 5503 5495 5488 5483 5482 5479 5475 5471 5472
5603 5603 5601 5599 5598 5595 5592 5589 5588 5588 5587 5585 5582 5580 5577 5575 5574 5573 5570 5567 5562 5558 5552 5546 5542 5537 5534 5532 5529 5527 5524 5519 5512 5507 5501 5496 5489 5484 5478 5474 5470 5467 5466
5592 5593 5593 5592 5593 5592 5590 5587 5585 5583 5582 5579 5577 5576 5573 5572 5570 5569 5566 5562 5558 5554 5549 5544 5538 5535 5530 5525 5521 5518 5516 5514 5512 5509 5503 5498 5492 5487 5478 5471 5468 5467 5465
5583 5584 5584 5585 5585 5584 5584 5584 5581 5580 5578 5576 5574 5572 5569 5567 5566 5564 5561 5558 5554 5550 5545 5541 5536 5531 5526 5523 5519 5515 5512 5509 5506 5503 5500 5496 5491 5486 5481 5476 5469 5463 5460
5577 5579 5579 5581 5580 5579 5578 5578 5578 5576 5572 5571 5570 5567 5566 5563 5562 5560 5557 5553 5548 5544 5540 5537 5532 5527 5522 5518 5514 5509 5506 5503 5501 5497 5495 5492 5488 5483 5478 5470 5462 5456 5456
5574 5575 5574 5574 5575 5575 5573 5571 5570 5571 5567 5565 5563 5564 5563 5560 5555 5553 5552 5549 5544 5538 5534 5532 5529 5525 5519 5515 5512 5507 5502 5500 5495 5492 5488 5486 5481 5477 5473 5469 5462 5456 5453
5566 5567 5569 5569 5570 5570 5567 5565 5566 5563 5561 5559 5558 5558 5557 5555 5551 5547 5545 5543 5541 5533 5530 5526 5525 5522 5517 5513 5510 5505 5502 5499 5493 5488 5483 5478 5474 5469 5464 5462 5459 5456 5452
5559 5559 5561 5562 5564 5563 5563 5559 5560 5558 5556 5553 5551 5549 5549 5548 5547 5542 5539 5538 5535 5530 5525 5522 5518 5516 5511 5507 5504 5502 5498 5494 5489 5482 5476 5471 5467 5463 5460 5456 5454 5453 5452
5552 5554 5555 5554 5556 5557 5558 5556 5554 5554 5554 5550 5549 5547 5543 5540 5541 5538 5534 5534 5532 5525 5522 5520 5516 5511 5507 5502 5499 5496 5492 5488 5483 5477 5474 5469 5466 5461 5456 5452 5449 5447 5447
5542 5545 5546 5549 5548 5549 5551 5551 5552 5552 5552 5549 5547 5545 5540 5536 5536 5534 5531 5528 5527 5523 5518 5513 5510 5507 5502 5498 5493 5489 5487 5483 5481 5478 5471 5466 5462 5456 5452 5448 5445 5442 5440
5532 5534 5536 5542 5544 5545 5547 5548 5550 5552 5555 5550 5547 5544 5539 5536 5537 5534 5532 5529 5525 5520 5514 5508 5503 5498 5497 5493 5488 5485 5481 5478 5475 5472 5467 5460 5456 5453 5448 5444 5441 5438 5437
5523 5524 5528 5531 5536 5538 5539 5537 5542 5545 5545 5546 5547 5547 5539 5537 5533 5532 5530 5527 5521 5516 5510 5505 5503 5500 5497 5493 5488 5483 5479 5476 5473 5470 5467 5461 5456 5451 5446 5441 5438 5434 5433
5513 5515 5517 5521 5528 5531 5531 5534 5534 5531 5536 5537 5538 5538 5536 5534 5529 5527 5525 5521 5515 5512 5506 5502 5501 5499 5496 5493 5489 5486 5481 5477 5473 5468 5464 5461 5456 5449 5443 5439 5437 5432 5431
5503 5506 5509 5514 5518 5521 5525 5526 5528 5528 5528 5527 5527 5528 5526 5526 5525 5521 5517 5512 5507 5505 5502 5500 5496 5495 5492 5488 5483 5479 5474 5470 5466 5464 5462 5458 5452 5447 5442 5437 5433 5430 5428
5489 5498 5502 5503 5505 5509 5513 5514 5516 5518 5519 5518 5515 5514 5515 5516 5514 5512 5511 5510 5505 5500 5497 5495 5493 5488 5487 5482 5478 5473 5469 5464 5461 5456 5452 5451 5449 5443 5439 5435 5429 5425 5421
5475 5482 5492 5494 5494 5497 5502 5505 5506 5508 5510 5510 5510 5510 5506 5503 5504 5505 5504 5501 5498 5495 5493 5489 5485 5482 5479 5475 5470 5466 5460 5455 5452 5447 5443 5440 5437 5435 5432 5428 5425 5421 5417
5465 5469 5473 5482 5485 5488 5491 5496 5498 5499 5501 5501 5503 5501 5502 5503 5500 5497 5494 5493 5493 5490 5485 5481 5477 5474 5471 5466 5461 5455 5450 5446 5442 5438 5434 5428 5426 5425 5424 5423 5421 5417 5414
5450 5458 5461 5467 5475 5476 5479 5481 5485 5489 5491 5491 5491 5490 5490 5491 5490 5488 5485 5483 5482 5480 5476 5474 5469 5465 5461 5457 5450 5444 5439 5435 5432 5428 5424 5421 5416 5415 5413 5413 5413 5409 5408
5432 5441 5448 5453 5460 5463 5466 5471 5472 5474 5478 5479 5478 5480 5481 5481 5478 5478 5476 5472 5469 5467 5466 5462 5457 5452 5448 5444 5438 5433 5428 5424 5420 5416 5413 5410 5406 5406 5403 5403 5401 5398 5396
5417 5427 5434 5440 5443 5451 5454 5458 5461 5462 5464 5469 5468 5468 5471 5471 5467 5464 5462 5457 5454 5453 5452 5448 5444 5439 5433 5430 5424 5418 5414 5411 5408 5403 5401 5400 5394 5392 5394 5392 5390 5388 5385
5404 5412 5420 5426 5432 5437 5443 5446 5449 5452 5453 5454 5457 5458 5454 5454 5450 5448 5447 5443 5440 5438 5436 5433 5427 5424 5418 5415 5412 5403 5400 5398 5395 5390 5386 5386 5383 5382 5379 5378 5376 5376 5374
5389 5398 5406 5413 5421 5426 5431 5438 5442 5443 5444 5442 5442 5443 5440 5437 5433 5434 5434 5431 5427 5422 5418 5415 5411 5408 5403 5398 5397 5390 5384 5384 5382 5380 5376 5373 5371 5367 5366 5364 5361 5359 5358